| time (UTC) | temp C | wind direction | speed KPH | gust KPH | rain 1hr cm | rain 24hr cm | rain mn cm | humidity % | barometer mb |
| 20260504205010 | 21 | 249 | 17.7 | 30.6 | 0.00 | 0.00 | 0.00 | 33 | 1006.0 |
| 20260504204526 | 21 | 265 | 12.9 | 25.7 | 0.00 | 0.00 | 0.00 | 33 | 1006.0 |
| 20260504204009 | 21 | 254 | 12.9 | 33.8 | 0.00 | 0.00 | 0.00 | 32 | 1005.9 |
| 20260504203507 | 21 | 280 | 16.1 | 33.8 | 0.00 | 0.00 | 0.00 | 32 | 1006.0 |
| 20260504203029 | 21 | 272 | 9.7 | 24.1 | 0.00 | 0.00 | 0.00 | 32 | 1005.9 |
| 20260504202511 | 21 | 252 | 14.5 | 25.7 | 0.00 | 0.00 | 0.00 | 33 | 1006.0 |
| 20260504202007 | 21 | 229 | 8.0 | 25.7 | 0.00 | 0.00 | 0.00 | 33 | 1006.0 |
| 20260504201526 | 20 | 229 | 9.7 | 25.7 | 0.00 | 0.00 | 0.00 | 32 | 1005.9 |
| 20260504201011 | 21 | 236 | 11.3 | 25.7 | 0.00 | 0.00 | 0.00 | 32 | 1006.0 |
| 20260504200509 | 21 | 296 | 12.9 | 24.1 | 0.00 | 0.00 | 0.00 | 33 | 1006.0 |
| 20260504200038 | 20 | 138 | 8.0 | 20.9 | 0.00 | 0.00 | 0.00 | 32 | 1006.0 |
| 20260504195507 | 20 | 277 | 9.7 | 24.1 | 0.00 | 0.00 | 0.00 | 34 | 1006.0 |
| 20260504195008 | 20 | 281 | 6.4 | 24.1 | 0.00 | 0.00 | 0.00 | 34 | 1006.0 |
| 20260504194528 | 20 | 294 | 6.4 | 20.9 | 0.00 | 0.00 | 0.00 | 33 | 1006.2 |
| 20260504194014 | 21 | 297 | 11.3 | 25.7 | 0.00 | 0.00 | 0.00 | 32 | 1006.1 |
| 20260504193509 | 21 | 279 | 14.5 | 25.7 | 0.00 | 0.00 | 0.00 | 33 | 1006.0 |
| 20260504193027 | 21 | 229 | 9.7 | 19.3 | 0.00 | 0.00 | 0.00 | 31 | 1006.1 |
| 20260504192509 | 21 | 167 | 12.9 | 27.4 | 0.00 | 0.00 | 0.00 | 32 | 1005.9 |
| 20260504192009 | 21 | 271 | 9.7 | 25.7 | 0.00 | 0.00 | 0.00 | 30 | 1006.1 |
| 20260504191538 | 21 | 260 | 9.7 | 27.4 | 0.00 | 0.00 | 0.00 | 34 | 1006.2 |
| 20260504191010 | 21 | 245 | 11.3 | 27.4 | 0.00 | 0.00 | 0.00 | 32 | 1006.2 |
| 20260504190507 | 21 | 306 | 12.9 | 25.7 | 0.00 | 0.00 | 0.00 | 31 | 1006.3 |
| 20260504190012 | 21 | 273 | 14.5 | 22.5 | 0.00 | 0.00 | 0.00 | 31 | 1006.4 |
| 20260504185511 | 21 | 258 | 8.0 | 25.7 | 0.00 | 0.00 | 0.00 | 30 | 1006.3 |
| 20260504185006 | 21 | 286 | 16.1 | 32.2 | 0.00 | 0.00 | 0.00 | 31 | 1006.4 |
| 20260504184528 | 21 | 227 | 9.7 | 32.2 | 0.00 | 0.00 | 0.00 | 33 | 1006.5 |
| 20260504184007 | 21 | 246 | 12.9 | 30.6 | 0.00 | 0.00 | 0.00 | 31 | 1006.5 |
| 20260504183503 | 21 | 262 | 14.5 | 32.2 | 0.00 | 0.00 | 0.00 | 32 | 1006.6 |
| 20260504183033 | 20 | 294 | 12.9 | 45.1 | 0.00 | 0.00 | 0.00 | 29 | 1006.7 |
| 20260504182509 | 21 | 288 | 16.1 | 35.4 | 0.00 | 0.00 | 0.00 | 33 | 1006.7 |
| 20260504182011 | 21 | 196 | 11.3 | 24.1 | 0.00 | 0.00 | 0.00 | 30 | 1006.7 |
| 20260504181523 | 21 | 272 | 11.3 | 30.6 | 0.00 | 0.00 | 0.00 | 33 | 1006.7 |
| 20260504181011 | 20 | 281 | 14.5 | 43.5 | 0.00 | 0.00 | 0.00 | 31 | 1006.7 |
| 20260504180515 | 20 | 183 | 16.1 | 43.5 | 0.00 | 0.00 | 0.00 | 30 | 1006.7 |
| 20260504180021 | 21 | 253 | 8.0 | 27.4 | 0.00 | 0.00 | 0.00 | 30 | 1006.8 |
| 20260504175507 | 20 | 151 | 9.7 | 25.7 | 0.00 | 0.00 | 0.00 | 35 | 1006.7 |
| 20260504175010 | 20 | 259 | 16.1 | 25.7 | 0.00 | 0.00 | 0.00 | 30 | 1006.7 |
| 20260504174526 | 20 | 242 | 12.9 | 24.1 | 0.00 | 0.00 | 0.00 | 30 | 1006.8 |
| 20260504174006 | 21 | 275 | 12.9 | 37.0 | 0.00 | 0.00 | 0.00 | 33 | 1006.9 |
| 20260504173503 | 20 | 264 | 8.0 | 37.0 | 0.00 | 0.00 | 0.00 | 36 | 1006.8 |
| 20260504173018 | 20 | 252 | 17.7 | 35.4 | 0.00 | 0.00 | 0.00 | 34 | 1006.9 |
| 20260504172510 | 20 | 196 | 19.3 | 35.4 | 0.00 | 0.00 | 0.00 | 31 | 1007.0 |
| 20260504172007 | 20 | 232 | 19.3 | 35.4 | 0.00 | 0.00 | 0.00 | 32 | 1006.9 |
| 20260504171521 | 20 | 323 | 12.9 | 37.0 | 0.00 | 0.00 | 0.00 | 35 | 1006.9 |
| 20260504171013 | 20 | 273 | 16.1 | 37.0 | 0.00 | 0.00 | 0.00 | 33 | 1007.1 |
| 20260504170510 | 20 | 255 | 14.5 | 37.0 | 0.00 | 0.00 | 0.00 | 33 | 1007.1 |
| 20260504151003 | 17 | 5 | 8.0 | 30.6 | 0.00 | 0.00 | 0.00 | 40 | 1008.5 |
| 20260504150511 | 17 | 257 | 16.1 | 27.4 | 0.00 | 0.00 | 0.00 | 38 | 1008.3 |
| 20260504141011 | 16 | 276 | 8.0 | 20.9 | 0.00 | 0.00 | 0.00 | 40 | 1008.8 |
| 20260504140508 | 16 | 278 | 6.4 | 20.9 | 0.00 | 0.00 | 0.00 | 40 | 1008.8 |
| 20260504130510 | 13 | 266 | 8.0 | 12.9 | 0.00 | 0.00 | 0.00 | 48 | 1009.8 |
| 20260504110506 | 8 | 50 | 1.6 | 11.3 | 0.00 | 0.00 | 0.00 | 60 | 1010.1 |
| 20260504100507 | 5 | 265 | 0.0 | 3.2 | 0.00 | 0.00 | 0.00 | 80 | 1010.1 |
| 20260504081527 | 5 | 268 | 1.6 | 3.2 | 0.00 | 0.00 | 0.00 | 78 | 1010.1 |
| 20260504081009 | 5 | 268 | 0.0 | 3.2 | 0.00 | 0.00 | 0.00 | 76 | 1010.0 |
| 20260504080510 | 5 | 268 | 0.0 | 0.0 | 0.00 | 0.00 | 0.00 | 74 | 1010.0 |
| 20260504050504 | 3 | 267 | 3.2 | 9.7 | 0.00 | 0.00 | 0.00 | 77 | 1009.9 |
| 20260504045503 | 2 | 261 | 3.2 | 6.4 | 0.00 | 0.00 | 0.00 | 83 | 1010.0 |
| 20260504045012 | 2 | 263 | 1.6 | 3.2 | 0.00 | 0.00 | 0.00 | 83 | 1010.0 |
| 20260504044508 | 1 | 263 | 1.6 | 3.2 | 0.00 | 0.00 | 0.00 | 83 | 1010.0 |
| 20260504044006 | 1 | 261 | 1.6 | 3.2 | 0.00 | 0.00 | 0.00 | 84 | 1010.1 |
| 20260504043506 | 1 | 259 | 1.6 | 3.2 | 0.00 | 0.00 | 0.00 | 82 | 1010.1 |
| 20260504043010 | 1 | 253 | 1.6 | 3.2 | 0.00 | 0.00 | 0.00 | 83 | 1010.1 |
| 20260504042504 | 1 | 251 | 1.6 | 3.2 | 0.00 | 0.00 | 0.00 | 84 | 1010.0 |
| 20260504042006 | 1 | 251 | 1.6 | 3.2 | 0.00 | 0.00 | 0.00 | 83 | 1010.0 |
| 20260504041508 | 1 | 251 | 1.6 | 3.2 | 0.00 | 0.00 | 0.00 | 83 | 1009.9 |
| 20260504041005 | 1 | 254 | 1.6 | 3.2 | 0.00 | 0.00 | 0.00 | 83 | 1009.9 |
| 20260504040507 | 1 | 255 | 1.6 | 1.6 | 0.00 | 0.00 | 0.00 | 83 | 1009.8 |
| 20260504040008 | 1 | 255 | 1.6 | 1.6 | 0.00 | 0.00 | 0.00 | 83 | 1009.7 |
| 20260504035504 | 1 | 255 | 1.6 | 1.6 | 0.00 | 0.00 | 0.00 | 81 | 1009.8 |
| 20260504035006 | 1 | 255 | 0.0 | 3.2 | 0.00 | 0.00 | 0.00 | 82 | 1009.7 |
| 20260504034509 | 1 | 255 | 0.0 | 3.2 | 0.00 | 0.00 | 0.00 | 82 | 1009.6 |
| 20260504034003 | 1 | 255 | 1.6 | 3.2 | 0.00 | 0.00 | 0.00 | 83 | 1009.6 |
| 20260504033507 | 1 | 255 | 1.6 | 3.2 | 0.00 | 0.00 | 0.00 | 82 | 1009.6 |
| 20260504033007 | 1 | 255 | 1.6 | 3.2 | 0.00 | 0.00 | 0.00 | 82 | 1009.6 |
| 20260504032507 | 1 | 255 | 1.6 | 3.2 | 0.00 | 0.00 | 0.00 | 81 | 1009.6 |
| 20260504032008 | 1 | 255 | 1.6 | 1.6 | 0.00 | 0.00 | 0.00 | 79 | 1009.6 |
| 20260504031510 | 1 | 255 | 1.6 | 3.2 | 0.00 | 0.00 | 0.00 | 77 | 1009.6 |
| 20260504031006 | 2 | 255 | 0.0 | 3.2 | 0.00 | 0.00 | 0.00 | 77 | 1009.6 |
| 20260504030504 | 2 | 255 | 0.0 | 1.6 | 0.00 | 0.00 | 0.00 | 76 | 1009.5 |
| 20260504030030 | 2 | 255 | 1.6 | 1.6 | 0.00 | 0.00 | 0.00 | 76 | 1009.5 |
| 20260504025507 | 2 | 255 | 0.0 | 1.6 | 0.00 | 0.00 | 0.00 | 77 | 1009.6 |
| 20260504025007 | 2 | 255 | 0.0 | 1.6 | 0.00 | 0.00 | 0.00 | 76 | 1009.5 |
| 20260504024512 | 2 | 255 | 0.0 | 3.2 | 0.00 | 0.00 | 0.00 | 76 | 1009.6 |
| 20260504024007 | 2 | 255 | 1.6 | 3.2 | 0.00 | 0.03 | 0.00 | 77 | 1009.6 |
| 20260504023506 | 2 | 255 | 1.6 | 3.2 | 0.00 | 0.03 | 0.00 | 76 | 1009.6 |
| 20260504023014 | 2 | 255 | 1.6 | 3.2 | 0.00 | 0.03 | 0.00 | 75 | 1009.6 |
| 20260504022509 | 2 | 255 | 1.6 | 3.2 | 0.00 | 0.03 | 0.00 | 75 | 1009.6 |
| 20260504022003 | 2 | 252 | 1.6 | 3.2 | 0.00 | 0.03 | 0.00 | 76 | 1009.6 |
| 20260504021516 | 2 | 252 | 1.6 | 1.6 | 0.00 | 0.03 | 0.00 | 75 | 1009.5 |
| 20260504021006 | 2 | 252 | 1.6 | 1.6 | 0.00 | 0.03 | 0.00 | 75 | 1009.5 |
| 20260504020505 | 2 | 252 | 1.6 | 1.6 | 0.00 | 0.03 | 0.00 | 74 | 1009.5 |
| 20260504020031 | 2 | 252 | 1.6 | 3.2 | 0.00 | 0.03 | 0.00 | 73 | 1009.5 |
| 20260504015506 | 2 | 252 | 1.6 | 3.2 | 0.00 | 0.03 | 0.00 | 73 | 1009.4 |
| 20260504015003 | 3 | 252 | 0.0 | 3.2 | 0.00 | 0.03 | 0.00 | 71 | 1009.5 |
| 20260504014531 | 3 | 252 | 1.6 | 3.2 | 0.00 | 0.03 | 0.00 | 72 | 1009.5 |
| 20260504014008 | 3 | 252 | 1.6 | 3.2 | 0.00 | 0.03 | 0.00 | 74 | 1009.4 |
| 20260504013503 | 3 | 254 | 1.6 | 3.2 | 0.00 | 0.03 | 0.00 | 74 | 1009.4 |
| 20260504013018 | 3 | 254 | 1.6 | 1.6 | 0.00 | 0.03 | 0.00 | 73 | 1009.3 |
| 20260504012507 | 3 | 255 | 1.6 | 1.6 | 0.00 | 0.03 | 0.00 | 71 | 1009.3 |
| 20260504012002 | 3 | 255 | 1.6 | 1.6 | 0.00 | 0.03 | 0.00 | 71 | 1009.3 |
| 20260504011520 | 3 | 255 | 0.0 | 1.6 | 0.00 | 0.03 | 0.00 | 69 | 1009.2 |
| 20260504011010 | 3 | 255 | 1.6 | 1.6 | 0.00 | 0.03 | 0.00 | 68 | 1009.2 |
| 20260504010502 | 3 | 255 | 1.6 | 1.6 | 0.00 | 0.03 | 0.00 | 67 | 1009.1 |
| 20260504010023 | 3 | 255 | 1.6 | 1.6 | 0.00 | 0.03 | 0.00 | 67 | 1009.0 |
| 20260504005507 | 3 | 254 | 1.6 | 3.2 | 0.00 | 0.03 | 0.00 | 66 | 1008.9 |
| 20260504005004 | 4 | 255 | 1.6 | 3.2 | 0.00 | 0.03 | 0.00 | 65 | 1008.8 |
| 20260504004522 | 5 | 254 | 0.0 | 3.2 | 0.00 | 0.03 | 0.00 | 63 | 1008.8 |
| 20260504004010 | 5 | 254 | 0.0 | 3.2 | 0.00 | 0.03 | 0.00 | 60 | 1008.8 |
| 20260504003505 | 5 | 255 | 0.0 | 3.2 | 0.00 | 0.03 | 0.00 | 61 | 1008.7 |
| 20260504003028 | 5 | 255 | 0.0 | 3.2 | 0.00 | 0.03 | 0.00 | 60 | 1008.7 |
| 20260504002506 | 5 | 255 | 0.0 | 1.6 | 0.00 | 0.03 | 0.00 | 64 | 1008.6 |
| 20260504002003 | 5 | 255 | 1.6 | 1.6 | 0.00 | 0.03 | 0.00 | 63 | 1008.5 |
| 20260504001523 | 5 | 255 | 1.6 | 1.6 | 0.00 | 0.03 | 0.00 | 62 | 1008.4 |
| 20260504001003 | 5 | 255 | 1.6 | 1.6 | 0.00 | 0.03 | 0.00 | 61 | 1008.3 |
| 20260504000507 | 6 | 255 | 1.6 | 1.6 | 0.00 | 0.03 | 0.00 | 60 | 1008.1 |
| 20260504000023 | 6 | 255 | 1.6 | 3.2 | 0.00 | 0.03 | 0.00 | 59 | 1008.1 |
| 20260503235503 | 6 | 254 | 1.6 | 3.2 | 0.00 | 0.03 | 0.00 | 58 | 1008.0 |
| 20260503235010 | 6 | 254 | 1.6 | 3.2 | 0.00 | 0.03 | 0.00 | 58 | 1008.0 |
| 20260503234536 | 7 | 254 | 1.6 | 3.2 | 0.00 | 0.03 | 0.00 | 54 | 1008.1 |
| 20260503234011 | 8 | 271 | 0.0 | 4.8 | 0.00 | 0.03 | 0.00 | 49 | 1008.0 |
| 20260503233505 | 8 | 271 | 1.6 | 4.8 | 0.00 | 0.03 | 0.00 | 47 | 1008.1 |
| 20260503233024 | 8 | 279 | 1.6 | 9.7 | 0.00 | 0.03 | 0.00 | 44 | 1008.1 |
| 20260503232507 | 9 | 272 | 1.6 | 9.7 | 0.00 | 0.03 | 0.00 | 44 | 1008.1 |
| 20260503232007 | 9 | 300 | 1.6 | 6.4 | 0.00 | 0.03 | 0.00 | 44 | 1008.0 |
| 20260503231527 | 9 | 302 | 1.6 | 6.4 | 0.00 | 0.03 | 0.00 | 43 | 1008.0 |
| 20260503231009 | 9 | 342 | 1.6 | 6.4 | 0.00 | 0.03 | 0.00 | 42 | 1007.9 |
| 20260503230507 | 10 | 244 | 1.6 | 6.4 | 0.00 | 0.03 | 0.00 | 42 | 1007.8 |
| 20260503230025 | 10 | 336 | 1.6 | 12.9 | 0.00 | 0.03 | 0.00 | 42 | 1007.7 |
| 20260503225503 | 10 | 292 | 4.8 | 17.7 | 0.00 | 0.03 | 0.00 | 40 | 1007.7 |
| 20260503225010 | 10 | 253 | 6.4 | 17.7 | 0.00 | 0.03 | 0.00 | 43 | 1007.6 |
| 20260503224524 | 10 | 350 | 6.4 | 19.3 | 0.00 | 0.03 | 0.00 | 43 | 1007.6 |
| 20260503224003 | 10 | 304 | 3.2 | 19.3 | 0.00 | 0.03 | 0.00 | 41 | 1007.6 |
| 20260503223507 | 10 | 248 | 8.0 | 19.3 | 0.00 | 0.03 | 0.00 | 39 | 1007.5 |
| 20260503223026 | 10 | 247 | 3.2 | 19.3 | 0.00 | 0.03 | 0.00 | 39 | 1007.5 |
| 20260503222504 | 10 | 269 | 8.0 | 19.3 | 0.00 | 0.03 | 0.00 | 39 | 1007.5 |
| 20260503222007 | 10 | 275 | 4.8 | 9.7 | 0.00 | 0.03 | 0.00 | 39 | 1007.3 |
| 20260503221534 | 11 | 300 | 3.2 | 12.9 | 0.00 | 0.03 | 0.00 | 42 | 1007.3 |
| 20260503221006 | 10 | 277 | 1.6 | 12.9 | 0.00 | 0.03 | 0.00 | 41 | 1007.3 |
| 20260503220508 | 10 | 203 | 3.2 | 16.1 | 0.00 | 0.03 | 0.00 | 40 | 1007.5 |
| 20260503220029 | 10 | 283 | 3.2 | 17.7 | 0.00 | 0.03 | 0.00 | 40 | 1007.4 |
| 20260503215509 | 10 | 227 | 1.6 | 17.7 | 0.00 | 0.03 | 0.00 | 41 | 1007.3 |
| 20260503215006 | 10 | 260 | 6.4 | 25.7 | 0.00 | 0.03 | 0.00 | 38 | 1007.1 |
| 20260503214528 | 11 | 19 | 12.9 | 25.7 | 0.00 | 0.03 | 0.00 | 37 | 1007.1 |
| 20260503214006 | 10 | 290 | 8.0 | 17.7 | 0.00 | 0.03 | 0.00 | 39 | 1007.0 |
| 20260503213508 | 11 | 259 | 6.4 | 17.7 | 0.00 | 0.03 | 0.00 | 39 | 1007.0 |
| 20260503213008 | 11 | 292 | 4.8 | 30.6 | 0.00 | 0.03 | 0.00 | 1007.0 | |
| 20260503212506 | 10 | 351 | 9.7 | 30.6 | 0.00 | 0.03 | 0.00 | 1007.0 | |
| 20260503212009 | 11 | 270 | 9.7 | 19.3 | 0.00 | 0.03 | 0.00 | 1006.9 | |
| 20260503211508 | 11 | 334 | 3.2 | 22.5 | 0.00 | 0.03 | 0.00 | 37 | 1006.7 |
| 20260503211006 | 11 | 250 | 12.9 | 22.5 | 0.00 | 0.05 | 0.00 | 37 | 1006.6 |
| 20260503210508 | 10 | 298 | 3.2 | 17.7 | 0.00 | 0.05 | 0.00 | 40 | 1006.6 |
| 20260503210029 | 11 | 281 | 4.8 | 16.1 | 0.00 | 0.05 | 0.00 | 39 | 1006.5 |
| 20260503205506 | 10 | 325 | 4.8 | 25.7 | 0.00 | 0.05 | 0.00 | 40 | 1006.6 |